Year,Month,Day,Hour,Minute,Value (Times are PST for insolation in W/m^2)
2020,08,09,00,00,0.00
2020,08,09,00,01,0.00
2020,08,09,00,02,0.00
2020,08,09,00,03,0.00
2020,08,09,00,04,0.00
2020,08,09,00,05,0.00
2020,08,09,00,06,0.00
2020,08,09,00,07,0.00
2020,08,09,00,08,0.00
2020,08,09,00,09,0.00
2020,08,09,00,10,0.00
2020,08,09,00,11,0.00
2020,08,09,00,12,0.00
2020,08,09,00,13,0.00
2020,08,09,00,14,0.00
2020,08,09,00,15,0.00
2020,08,09,00,16,0.00
2020,08,09,00,17,0.00
2020,08,09,00,18,0.00
2020,08,09,00,19,0.00
2020,08,09,00,20,0.00
2020,08,09,00,21,0.00
2020,08,09,00,22,0.00
2020,08,09,00,23,0.00
2020,08,09,00,24,0.00
2020,08,09,00,25,0.00
2020,08,09,00,26,0.00
2020,08,09,00,27,0.00
2020,08,09,00,28,0.00
2020,08,09,00,29,0.00
2020,08,09,00,30,0.00
2020,08,09,00,31,0.00
2020,08,09,00,32,0.00
2020,08,09,00,33,0.00
2020,08,09,00,34,0.00
2020,08,09,00,35,0.00
2020,08,09,00,36,0.00
2020,08,09,00,37,0.00
2020,08,09,00,38,0.00
2020,08,09,00,39,0.00
2020,08,09,00,40,0.00
2020,08,09,00,41,0.00
2020,08,09,00,42,0.00
2020,08,09,00,43,0.00
2020,08,09,00,44,0.00
2020,08,09,00,45,0.00
2020,08,09,00,46,0.00
2020,08,09,00,47,0.00
2020,08,09,00,48,0.00
2020,08,09,00,49,0.00
2020,08,09,00,50,0.00
2020,08,09,00,51,0.00
2020,08,09,00,52,0.00
2020,08,09,00,53,0.00
2020,08,09,00,54,0.00
2020,08,09,00,55,0.00
2020,08,09,00,56,0.00
2020,08,09,00,57,0.00
2020,08,09,00,58,0.00
2020,08,09,00,59,0.00
2020,08,09,01,00,0.00
2020,08,09,01,01,0.00
2020,08,09,01,02,0.00
2020,08,09,01,03,0.00
2020,08,09,01,04,0.00
2020,08,09,01,05,0.00
2020,08,09,01,06,0.00
2020,08,09,01,07,0.00
2020,08,09,01,08,0.00
2020,08,09,01,09,0.00
2020,08,09,01,10,0.00
2020,08,09,01,11,0.00
2020,08,09,01,12,0.00
2020,08,09,01,13,0.00
2020,08,09,01,14,0.00
2020,08,09,01,15,0.00
2020,08,09,01,16,0.00
2020,08,09,01,17,0.00
2020,08,09,01,18,0.00
2020,08,09,01,19,0.00
2020,08,09,01,20,0.00
2020,08,09,01,21,0.00
2020,08,09,01,22,0.00
2020,08,09,01,23,0.00
2020,08,09,01,24,0.00
2020,08,09,01,25,0.00
2020,08,09,01,26,0.00
2020,08,09,01,27,0.00
2020,08,09,01,28,0.00
2020,08,09,01,29,0.00
2020,08,09,01,30,0.00
2020,08,09,01,31,0.00
2020,08,09,01,32,0.00
2020,08,09,01,33,0.00
2020,08,09,01,34,0.00
2020,08,09,01,35,0.00
2020,08,09,01,36,0.00
2020,08,09,01,37,0.00
2020,08,09,01,38,0.00
2020,08,09,01,39,0.00
2020,08,09,01,40,0.00
2020,08,09,01,41,0.00
2020,08,09,01,42,0.00
2020,08,09,01,43,0.00
2020,08,09,01,44,0.00
2020,08,09,01,45,0.00
2020,08,09,01,46,0.00
2020,08,09,01,47,0.00
2020,08,09,01,48,0.00
2020,08,09,01,49,0.00
2020,08,09,01,50,0.00
2020,08,09,01,51,0.00
2020,08,09,01,52,0.00
2020,08,09,01,53,0.00
2020,08,09,01,54,0.00
2020,08,09,01,55,0.00
2020,08,09,01,56,0.00
2020,08,09,01,57,0.00
2020,08,09,01,58,0.00
2020,08,09,01,59,0.00
2020,08,09,02,00,0.00
2020,08,09,02,01,0.00
2020,08,09,02,02,0.00
2020,08,09,02,03,0.00
2020,08,09,02,04,0.00
2020,08,09,02,05,0.00
2020,08,09,02,06,0.00
2020,08,09,02,07,0.00
2020,08,09,02,08,0.00
2020,08,09,02,09,0.00
2020,08,09,02,10,0.00
2020,08,09,02,11,0.00
2020,08,09,02,12,0.00
2020,08,09,02,13,0.00
2020,08,09,02,14,0.00
2020,08,09,02,15,0.00
2020,08,09,02,16,0.00
2020,08,09,02,17,0.00
2020,08,09,02,18,0.00
2020,08,09,02,19,0.00
2020,08,09,02,20,0.00
2020,08,09,02,21,0.00
2020,08,09,02,22,0.00
2020,08,09,02,23,0.00
2020,08,09,02,24,0.00
2020,08,09,02,25,0.00
2020,08,09,02,26,0.00
2020,08,09,02,27,0.00
2020,08,09,02,28,0.00
2020,08,09,02,29,0.00
2020,08,09,02,30,0.00
2020,08,09,02,31,0.00
2020,08,09,02,32,0.00
2020,08,09,02,33,0.00
2020,08,09,02,34,0.00
2020,08,09,02,35,0.00
2020,08,09,02,36,0.00
2020,08,09,02,37,0.00
2020,08,09,02,38,0.00
2020,08,09,02,39,0.00
2020,08,09,02,40,0.00
2020,08,09,02,41,0.00
2020,08,09,02,42,0.00
2020,08,09,02,43,0.00
2020,08,09,02,44,0.00
2020,08,09,02,45,0.00
2020,08,09,02,46,0.00
2020,08,09,02,47,0.00
2020,08,09,02,48,0.00
2020,08,09,02,49,0.00
2020,08,09,02,50,0.00
2020,08,09,02,51,0.00
2020,08,09,02,52,0.00
2020,08,09,02,53,0.00
2020,08,09,02,54,0.00
2020,08,09,02,55,0.00
2020,08,09,02,56,0.00
2020,08,09,02,57,0.00
2020,08,09,02,58,0.00
2020,08,09,02,59,0.00
2020,08,09,03,00,0.00
2020,08,09,03,01,0.00
2020,08,09,03,02,0.00
2020,08,09,03,03,0.00
2020,08,09,03,04,0.00
2020,08,09,03,05,0.00
2020,08,09,03,06,0.00
2020,08,09,03,07,0.00
2020,08,09,03,08,0.00
2020,08,09,03,09,0.00
2020,08,09,03,10,0.00
2020,08,09,03,11,0.00
2020,08,09,03,12,0.00
2020,08,09,03,13,0.00
2020,08,09,03,14,0.00
2020,08,09,03,15,0.00
2020,08,09,03,16,0.00
2020,08,09,03,17,0.00
2020,08,09,03,18,0.00
2020,08,09,03,19,0.00
2020,08,09,03,20,0.00
2020,08,09,03,21,0.00
2020,08,09,03,22,0.00
2020,08,09,03,23,0.00
2020,08,09,03,24,0.00
2020,08,09,03,25,0.00
2020,08,09,03,26,0.00
2020,08,09,03,27,0.00
2020,08,09,03,28,0.00
2020,08,09,03,29,0.00
2020,08,09,03,30,0.00
2020,08,09,03,31,0.00
2020,08,09,03,32,0.00
2020,08,09,03,33,0.00
2020,08,09,03,34,0.00
2020,08,09,03,35,0.00
2020,08,09,03,36,0.00
2020,08,09,03,37,0.00
2020,08,09,03,38,0.00
2020,08,09,03,39,0.00
2020,08,09,03,40,0.00
2020,08,09,03,41,0.00
2020,08,09,03,42,0.00
2020,08,09,03,43,0.00
2020,08,09,03,44,0.00
2020,08,09,03,45,0.00
2020,08,09,03,46,0.00
2020,08,09,03,47,0.00
2020,08,09,03,48,0.00
2020,08,09,03,49,0.00
2020,08,09,03,50,0.00
2020,08,09,03,51,0.00
2020,08,09,03,52,0.00
2020,08,09,03,53,0.00
2020,08,09,03,54,0.00
2020,08,09,03,55,0.00
2020,08,09,03,56,0.00
2020,08,09,03,57,0.00
2020,08,09,03,58,0.00
2020,08,09,03,59,0.00
2020,08,09,04,00,0.00
2020,08,09,04,01,0.00
2020,08,09,04,02,0.00
2020,08,09,04,03,0.00
2020,08,09,04,04,0.00
2020,08,09,04,05,0.00
2020,08,09,04,06,0.00
2020,08,09,04,07,0.00
2020,08,09,04,08,0.00
2020,08,09,04,09,0.00
2020,08,09,04,10,0.00
2020,08,09,04,11,0.00
2020,08,09,04,12,0.00
2020,08,09,04,13,0.00
2020,08,09,04,14,0.00
2020,08,09,04,15,0.00
2020,08,09,04,16,0.00
2020,08,09,04,17,0.00
2020,08,09,04,18,0.00
2020,08,09,04,19,0.00
2020,08,09,04,20,0.00
2020,08,09,04,21,0.00
2020,08,09,04,22,0.00
2020,08,09,04,23,0.00
2020,08,09,04,24,0.00
2020,08,09,04,25,0.00
2020,08,09,04,26,0.00
2020,08,09,04,27,0.00
2020,08,09,04,28,0.00
2020,08,09,04,29,0.00
2020,08,09,04,30,0.00
2020,08,09,04,31,0.00
2020,08,09,04,32,0.00
2020,08,09,04,33,0.00
2020,08,09,04,34,0.00
2020,08,09,04,35,0.00
2020,08,09,04,36,0.00
2020,08,09,04,37,0.00
2020,08,09,04,38,0.00
2020,08,09,04,39,0.00
2020,08,09,04,40,0.00
2020,08,09,04,41,0.00
2020,08,09,04,42,0.00
2020,08,09,04,43,0.00
2020,08,09,04,44,0.00
2020,08,09,04,45,0.00
2020,08,09,04,46,0.00
2020,08,09,04,47,0.00
2020,08,09,04,48,0.00
2020,08,09,04,49,0.00
2020,08,09,04,50,0.00
2020,08,09,04,51,0.00
2020,08,09,04,52,0.00
2020,08,09,04,53,0.00
2020,08,09,04,54,0.00
2020,08,09,04,55,0.00
2020,08,09,04,56,0.00
2020,08,09,04,57,0.00
2020,08,09,04,58,0.00
2020,08,09,04,59,0.00
2020,08,09,05,00,0.00
2020,08,09,05,01,0.00
2020,08,09,05,02,0.00
2020,08,09,05,03,0.00
2020,08,09,05,04,0.00
2020,08,09,05,05,0.00
2020,08,09,05,06,0.00
2020,08,09,05,07,0.00
2020,08,09,05,08,0.00
2020,08,09,05,09,0.00
2020,08,09,05,10,0.00
2020,08,09,05,11,0.00
2020,08,09,05,12,0.00
2020,08,09,05,13,0.00
2020,08,09,05,14,0.00
2020,08,09,05,15,0.00
2020,08,09,05,16,0.00
2020,08,09,05,17,0.00
2020,08,09,05,18,0.00
2020,08,09,05,19,0.00
2020,08,09,05,20,0.00
2020,08,09,05,21,0.00
2020,08,09,05,22,0.00
2020,08,09,05,23,0.00
2020,08,09,05,24,0.00
2020,08,09,05,25,0.00
2020,08,09,05,26,0.00
2020,08,09,05,27,0.00
2020,08,09,05,28,0.00
2020,08,09,05,29,0.00
2020,08,09,05,30,0.00
2020,08,09,05,31,0.00
2020,08,09,05,32,0.00
2020,08,09,05,33,0.00
2020,08,09,05,34,0.00
2020,08,09,05,35,0.00
2020,08,09,05,36,0.00
2020,08,09,05,37,0.00
2020,08,09,05,38,0.00
2020,08,09,05,39,0.00
2020,08,09,05,40,0.00
2020,08,09,05,41,0.00
2020,08,09,05,42,0.00
2020,08,09,05,43,0.00
2020,08,09,05,44,0.00
2020,08,09,05,45,0.00
2020,08,09,05,46,0.00
2020,08,09,05,47,0.00
2020,08,09,05,48,0.00
2020,08,09,05,49,0.00
2020,08,09,05,50,0.00
2020,08,09,05,51,0.00
2020,08,09,05,52,0.00
2020,08,09,05,53,0.00
2020,08,09,05,54,0.00
2020,08,09,05,55,0.00
2020,08,09,05,56,0.00
2020,08,09,05,57,0.00
2020,08,09,05,58,0.00
2020,08,09,05,59,0.00
2020,08,09,06,00,0.00
2020,08,09,06,01,2.00
2020,08,09,06,02,5.00
2020,08,09,06,03,5.00
2020,08,09,06,04,5.00
2020,08,09,06,05,5.00
2020,08,09,06,06,6.90
2020,08,09,06,07,7.00
2020,08,09,06,08,7.00
2020,08,09,06,09,7.00
2020,08,09,06,10,7.90
2020,08,09,06,11,9.00
2020,08,09,06,12,9.00
2020,08,09,06,13,10.60
2020,08,09,06,14,11.00
2020,08,09,06,15,11.00
2020,08,09,06,16,11.20
2020,08,09,06,17,12.00
2020,08,09,06,18,12.00
2020,08,09,06,19,12.00
2020,08,09,06,20,12.00
2020,08,09,06,21,13.30
2020,08,09,06,22,14.00
2020,08,09,06,23,14.00
2020,08,09,06,24,16.00
2020,08,09,06,25,16.00
2020,08,09,06,26,16.70
2020,08,09,06,27,18.00
2020,08,09,06,28,18.50
2020,08,09,06,29,19.00
2020,08,09,06,30,20.40
2020,08,09,06,31,21.00
2020,08,09,06,32,22.90
2020,08,09,06,33,25.00
2020,08,09,06,34,25.00
2020,08,09,06,35,25.40
2020,08,09,06,36,26.90
2020,08,09,06,37,29.10
2020,08,09,06,38,31.40
2020,08,09,06,39,32.80
2020,08,09,06,40,34.70
2020,08,09,06,41,36.90
2020,08,09,06,42,37.40
2020,08,09,06,43,39.00
2020,08,09,06,44,39.40
2020,08,09,06,45,40.00
2020,08,09,06,46,41.20
2020,08,09,06,47,42.00
2020,08,09,06,48,43.60
2020,08,09,06,49,44.10
2020,08,09,06,50,46.00
2020,08,09,06,51,45.20
2020,08,09,06,52,44.20
2020,08,09,06,53,49.90
2020,08,09,06,54,52.10
2020,08,09,06,55,53.70
2020,08,09,06,56,55.40
2020,08,09,06,57,57.70
2020,08,09,06,58,60.00
2020,08,09,06,59,63.40
2020,08,09,07,00,65.60
2020,08,09,07,01,68.10
2020,08,09,07,02,71.00
2020,08,09,07,03,74.40
2020,08,09,07,04,76.70
2020,08,09,07,05,78.60
2020,08,09,07,06,80.80
2020,08,09,07,07,84.20
2020,08,09,07,08,86.50
2020,08,09,07,09,88.70
2020,08,09,07,10,90.40
2020,08,09,07,11,92.10
2020,08,09,07,12,94.30
2020,08,09,07,13,96.50
2020,08,09,07,14,97.80
2020,08,09,07,15,99.80
2020,08,09,07,16,102.30
2020,08,09,07,17,104.30
2020,08,09,07,18,105.70
2020,08,09,07,19,108.00
2020,08,09,07,20,111.40
2020,08,09,07,21,113.70
2020,08,09,07,22,115.50
2020,08,09,07,23,117.80
2020,08,09,07,24,120.10
2020,08,09,07,25,121.00
2020,08,09,07,26,121.60
2020,08,09,07,27,123.00
2020,08,09,07,28,123.00
2020,08,09,07,29,123.00
2020,08,09,07,30,123.00
2020,08,09,07,31,124.50
2020,08,09,07,32,125.00
2020,08,09,07,33,127.00
2020,08,09,07,34,127.00
2020,08,09,07,35,127.00
2020,08,09,07,36,127.00
2020,08,09,07,37,127.00
2020,08,09,07,38,127.70
2020,08,09,07,39,128.00
2020,08,09,07,40,129.70
2020,08,09,07,41,132.40
2020,08,09,07,42,138.40
2020,08,09,07,43,146.20
2020,08,09,07,44,155.70
2020,08,09,07,45,164.10
2020,08,09,07,46,172.80
2020,08,09,07,47,179.40
2020,08,09,07,48,184.80
2020,08,09,07,49,187.70
2020,08,09,07,50,186.10
2020,08,09,07,51,186.00
2020,08,09,07,52,186.00
2020,08,09,07,53,186.90
2020,08,09,07,54,189.00
2020,08,09,07,55,191.90
2020,08,09,07,56,193.00
2020,08,09,07,57,197.80
2020,08,09,07,58,199.90
2020,08,09,07,59,200.30
2020,08,09,08,00,202.50
2020,08,09,08,01,204.00
2020,08,09,08,02,204.90
2020,08,09,08,03,206.60
2020,08,09,08,04,208.30
2020,08,09,08,05,210.60
2020,08,09,08,06,212.70
2020,08,09,08,07,216.00
2020,08,09,08,08,218.40
2020,08,09,08,09,220.90
2020,08,09,08,10,224.60
2020,08,09,08,11,228.00
2020,08,09,08,12,230.90
2020,08,09,08,13,234.70
2020,08,09,08,14,238.40
2020,08,09,08,15,242.60
2020,08,09,08,16,248.40
2020,08,09,08,17,252.50
2020,08,09,08,18,257.90
2020,08,09,08,19,262.10
2020,08,09,08,20,268.40
2020,08,09,08,21,274.20
2020,08,09,08,22,279.50
2020,08,09,08,23,286.10
2020,08,09,08,24,294.30
2020,08,09,08,25,300.00
2020,08,09,08,26,305.50
2020,08,09,08,27,311.40
2020,08,09,08,28,317.20
2020,08,09,08,29,323.00
2020,08,09,08,30,328.50
2020,08,09,08,31,334.60
2020,08,09,08,32,338.70
2020,08,09,08,33,343.30
2020,08,09,08,34,346.80
2020,08,09,08,35,350.60
2020,08,09,08,36,353.20
2020,08,09,08,37,356.00
2020,08,09,08,38,358.70
2020,08,09,08,39,361.40
2020,08,09,08,40,365.20
2020,08,09,08,41,367.00
2020,08,09,08,42,369.60
2020,08,09,08,43,373.20
2020,08,09,08,44,374.70
2020,08,09,08,45,377.90
2020,08,09,08,46,380.50
2020,08,09,08,47,382.30
2020,08,09,08,48,386.00
2020,08,09,08,49,387.90
2020,08,09,08,50,392.00
2020,08,09,08,51,394.60
2020,08,09,08,52,397.60
2020,08,09,08,53,399.70
2020,08,09,08,54,402.60
2020,08,09,08,55,405.20
2020,08,09,08,56,407.30
2020,08,09,08,57,410.40
2020,08,09,08,58,412.80
2020,08,09,08,59,417.10
2020,08,09,09,00,418.80
2020,08,09,09,01,422.60
2020,08,09,09,02,425.20
2020,08,09,09,03,428.00
2020,08,09,09,04,431.00
2020,08,09,09,05,433.50
2020,08,09,09,06,435.60
2020,08,09,09,07,439.00
2020,08,09,09,08,441.80
2020,08,09,09,09,445.30
2020,08,09,09,10,446.70
2020,08,09,09,11,449.90
2020,08,09,09,12,453.20
2020,08,09,09,13,456.10
2020,08,09,09,14,458.60
2020,08,09,09,15,461.60
2020,08,09,09,16,464.20
2020,08,09,09,17,466.40
2020,08,09,09,18,469.00
2020,08,09,09,19,471.80
2020,08,09,09,20,474.60
2020,08,09,09,21,477.30
2020,08,09,09,22,479.40
2020,08,09,09,23,482.40
2020,08,09,09,24,485.00
2020,08,09,09,25,487.40
2020,08,09,09,26,490.50
2020,08,09,09,27,492.70
2020,08,09,09,28,494.90
2020,08,09,09,29,497.70
2020,08,09,09,30,500.30
2020,08,09,09,31,503.40
2020,08,09,09,32,505.80
2020,08,09,09,33,508.40
2020,08,09,09,34,512.00
2020,08,09,09,35,512.80
2020,08,09,09,36,515.80
2020,08,09,09,37,518.00
2020,08,09,09,38,520.80
2020,08,09,09,39,523.40
2020,08,09,09,40,525.60
2020,08,09,09,41,527.10
2020,08,09,09,42,531.00
2020,08,09,09,43,531.50
2020,08,09,09,44,534.00
2020,08,09,09,45,536.90
2020,08,09,09,46,539.70
2020,08,09,09,47,542.30
2020,08,09,09,48,546.00
2020,08,09,09,49,547.90
2020,08,09,09,50,549.90
2020,08,09,09,51,550.70
2020,08,09,09,52,554.20
2020,08,09,09,53,556.30
2020,08,09,09,54,560.00
2020,08,09,09,55,562.20
2020,08,09,09,56,563.70
2020,08,09,09,57,565.60
2020,08,09,09,58,569.40
2020,08,09,09,59,571.20
2020,08,09,10,00,573.80
2020,08,09,10,01,577.00
2020,08,09,10,02,578.10
2020,08,09,10,03,581.90
2020,08,09,10,04,584.00
2020,08,09,10,05,586.20
2020,08,09,10,06,588.60
2020,08,09,10,07,589.10
2020,08,09,10,08,592.00
2020,08,09,10,09,593.10
2020,08,09,10,10,596.80
2020,08,09,10,11,598.50
2020,08,09,10,12,601.30
2020,08,09,10,13,603.00
2020,08,09,10,14,605.20
2020,08,09,10,15,607.70
2020,08,09,10,16,612.00
2020,08,09,10,17,612.20
2020,08,09,10,18,613.00
2020,08,09,10,19,613.00
2020,08,09,10,20,617.00
2020,08,09,10,21,621.00
2020,08,09,10,22,621.70
2020,08,09,10,23,625.20
2020,08,09,10,24,626.00
2020,08,09,10,25,629.30
2020,08,09,10,26,631.50
2020,08,09,10,27,633.70
2020,08,09,10,28,636.30
2020,08,09,10,29,639.00
2020,08,09,10,30,640.00
2020,08,09,10,31,641.50
2020,08,09,10,32,642.90
2020,08,09,10,33,645.10
2020,08,09,10,34,647.00
2020,08,09,10,35,647.60
2020,08,09,10,36,650.00
2020,08,09,10,37,652.00
2020,08,09,10,38,653.10
2020,08,09,10,39,655.30
2020,08,09,10,40,656.80
2020,08,09,10,41,658.80
2020,08,09,10,42,661.30
2020,08,09,10,43,664.40
2020,08,09,10,44,666.60
2020,08,09,10,45,668.80
2020,08,09,10,46,670.00
2020,08,09,10,47,672.00
2020,08,09,10,48,674.50
2020,08,09,10,49,676.70
2020,08,09,10,50,678.80
2020,08,09,10,51,680.20
2020,08,09,10,52,682.50
2020,08,09,10,53,684.60
2020,08,09,10,54,686.40
2020,08,09,10,55,687.00
2020,08,09,10,56,688.40
2020,08,09,10,57,690.60
2020,08,09,10,58,693.50
2020,08,09,10,59,694.20
2020,08,09,11,00,696.00
2020,08,09,11,01,696.50
2020,08,09,11,02,698.80
2020,08,09,11,03,700.50
2020,08,09,11,04,702.10
2020,08,09,11,05,704.30
2020,08,09,11,06,705.00
2020,08,09,11,07,706.80
2020,08,09,11,08,708.20
2020,08,09,11,09,710.40
2020,08,09,11,10,712.70
2020,08,09,11,11,714.50
2020,08,09,11,12,716.10
2020,08,09,11,13,718.30
2020,08,09,11,14,720.40
2020,08,09,11,15,721.00
2020,08,09,11,16,723.90
2020,08,09,11,17,724.30
2020,08,09,11,18,726.50
2020,08,09,11,19,728.00
2020,08,09,11,20,728.40
2020,08,09,11,21,730.10
2020,08,09,11,22,732.40
2020,08,09,11,23,734.60
2020,08,09,11,24,735.00
2020,08,09,11,25,737.10
2020,08,09,11,26,738.40
2020,08,09,11,27,740.60
2020,08,09,11,28,742.00
2020,08,09,11,29,743.00
2020,08,09,11,30,744.00
2020,08,09,11,31,744.80
2020,08,09,11,32,746.70
2020,08,09,11,33,747.20
2020,08,09,11,34,751.00
2020,08,09,11,35,751.20
2020,08,09,11,36,752.70
2020,08,09,11,37,754.00
2020,08,09,11,38,756.10
2020,08,09,11,39,758.00
2020,08,09,11,40,758.80
2020,08,09,11,41,759.00
2020,08,09,11,42,761.20
2020,08,09,11,43,763.00
2020,08,09,11,44,763.60
2020,08,09,11,45,765.40
2020,08,09,11,46,766.00
2020,08,09,11,47,766.00
2020,08,09,11,48,767.30
2020,08,09,11,49,769.60
2020,08,09,11,50,771.80
2020,08,09,11,51,772.00
2020,08,09,11,52,772.20
2020,08,09,11,53,773.70
2020,08,09,11,54,775.00
2020,08,09,11,55,775.00
2020,08,09,11,56,777.50
2020,08,09,11,57,777.50
2020,08,09,11,58,779.50
2020,08,09,11,59,780.00
2020,08,09,12,00,780.40
2020,08,09,12,01,782.50
2020,08,09,12,02,784.00
2020,08,09,12,03,784.90
2020,08,09,12,04,786.00
2020,08,09,12,05,787.40
2020,08,09,12,06,788.80
2020,08,09,12,07,789.00
2020,08,09,12,08,789.20
2020,08,09,12,09,791.00
2020,08,09,12,10,791.00
2020,08,09,12,11,792.60
2020,08,09,12,12,795.00
2020,08,09,12,13,795.70
2020,08,09,12,14,796.00
2020,08,09,12,15,797.60
2020,08,09,12,16,798.00
2020,08,09,12,17,800.00
2020,08,09,12,18,800.00
2020,08,09,12,19,800.70
2020,08,09,12,20,802.50
2020,08,09,12,21,803.00
2020,08,09,12,22,804.30
2020,08,09,12,23,806.50
2020,08,09,12,24,805.30
2020,08,09,12,25,807.20
2020,08,09,12,26,809.00
2020,08,09,12,27,808.40
2020,08,09,12,28,807.80
2020,08,09,12,29,809.00
2020,08,09,12,30,809.00
2020,08,09,12,31,809.70
2020,08,09,12,32,810.00
2020,08,09,12,33,810.00
2020,08,09,12,34,810.30
2020,08,09,12,35,812.40
2020,08,09,12,36,814.00
2020,08,09,12,37,814.00
2020,08,09,12,38,814.00
2020,08,09,12,39,814.00
2020,08,09,12,40,814.00
2020,08,09,12,41,815.60
2020,08,09,12,42,817.00
2020,08,09,12,43,817.00
2020,08,09,12,44,817.60
2020,08,09,12,45,818.30
2020,08,09,12,46,818.00
2020,08,09,12,47,819.00
2020,08,09,12,48,812.50
2020,08,09,12,49,809.00
2020,08,09,12,50,809.00
2020,08,09,12,51,46.90
2020,08,09,12,52,45.60
2020,08,09,12,53,44.00
2020,08,09,12,54,44.00
2020,08,09,12,55,49.00
2020,08,09,12,56,54.00
2020,08,09,12,57,296.90
2020,08,09,12,58,342.20
2020,08,09,12,59,335.30
2020,08,09,13,00,441.00
2020,08,09,13,01,545.20
2020,08,09,13,02,824.00
2020,08,09,13,03,825.10
2020,08,09,13,04,825.10
2020,08,09,13,05,827.30
2020,08,09,13,06,826.40
2020,08,09,13,07,826.00
2020,08,09,13,08,826.00
2020,08,09,13,09,826.00
2020,08,09,13,10,826.60
2020,08,09,13,11,828.00
2020,08,09,13,12,828.00
2020,08,09,13,13,828.00
2020,08,09,13,14,828.00
2020,08,09,13,15,829.70
2020,08,09,13,16,828.10
2020,08,09,13,17,828.00
2020,08,09,13,18,828.40
2020,08,09,13,19,829.40
2020,08,09,13,20,826.30
2020,08,09,13,21,825.00
2020,08,09,13,22,827.30
2020,08,09,13,23,829.50
2020,08,09,13,24,828.30
2020,08,09,13,25,828.00
2020,08,09,13,26,827.70
2020,08,09,13,27,826.60
2020,08,09,13,28,828.00
2020,08,09,13,29,828.00
2020,08,09,13,30,828.00
2020,08,09,13,31,828.00
2020,08,09,13,32,828.00
2020,08,09,13,33,828.00
2020,08,09,13,34,827.80
2020,08,09,13,35,826.40
2020,08,09,13,36,828.00
2020,08,09,13,37,828.00
2020,08,09,13,38,828.00
2020,08,09,13,39,828.00
2020,08,09,13,40,829.50
2020,08,09,13,41,826.70
2020,08,09,13,42,827.80
2020,08,09,13,43,828.00
2020,08,09,13,44,827.50
2020,08,09,13,45,826.00
2020,08,09,13,46,826.00
2020,08,09,13,47,826.00
2020,08,09,13,48,824.80
2020,08,09,13,49,824.00
2020,08,09,13,50,824.00
2020,08,09,13,51,823.90
2020,08,09,13,52,823.20
2020,08,09,13,53,823.70
2020,08,09,13,54,822.20
2020,08,09,13,55,821.00
2020,08,09,13,56,822.20
2020,08,09,13,57,823.00
2020,08,09,13,58,823.00
2020,08,09,13,59,821.20
2020,08,09,14,00,821.00
2020,08,09,14,01,821.00
2020,08,09,14,02,820.30
2020,08,09,14,03,819.00
2020,08,09,14,04,817.90
2020,08,09,14,05,817.00
2020,08,09,14,06,817.00
2020,08,09,14,07,817.00
2020,08,09,14,08,816.00
2020,08,09,14,09,816.00
2020,08,09,14,10,815.40
2020,08,09,14,11,814.00
2020,08,09,14,12,814.00
2020,08,09,14,13,814.00
2020,08,09,14,14,811.20
2020,08,09,14,15,811.60
2020,08,09,14,16,812.00
2020,08,09,14,17,811.80
2020,08,09,14,18,810.00
2020,08,09,14,19,809.70
2020,08,09,14,20,809.00
2020,08,09,14,21,807.90
2020,08,09,14,22,807.00
2020,08,09,14,23,807.00
2020,08,09,14,24,805.40
2020,08,09,14,25,804.90
2020,08,09,14,26,802.90
2020,08,09,14,27,802.00
2020,08,09,14,28,802.00
2020,08,09,14,29,801.00
2020,08,09,14,30,800.00
2020,08,09,14,31,798.70
2020,08,09,14,32,796.50
2020,08,09,14,33,796.00
2020,08,09,14,34,795.90
2020,08,09,14,35,794.60
2020,08,09,14,36,793.00
2020,08,09,14,37,792.20
2020,08,09,14,38,791.00
2020,08,09,14,39,789.80
2020,08,09,14,40,788.30
2020,08,09,14,41,788.00
2020,08,09,14,42,788.00
2020,08,09,14,43,785.70
2020,08,09,14,44,783.50
2020,08,09,14,45,781.40
2020,08,09,14,46,780.00
2020,08,09,14,47,780.00
2020,08,09,14,48,779.30
2020,08,09,14,49,779.00
2020,08,09,14,50,775.60
2020,08,09,14,51,774.90
2020,08,09,14,52,773.00
2020,08,09,14,53,772.80
2020,08,09,14,54,771.20
2020,08,09,14,55,770.00
2020,08,09,14,56,768.80
2020,08,09,14,57,768.00
2020,08,09,14,58,765.70
2020,08,09,14,59,765.00
2020,08,09,15,00,762.80
2020,08,09,15,01,761.00
2020,08,09,15,02,760.30
2020,08,09,15,03,758.60
2020,08,09,15,04,757.00
2020,08,09,15,05,756.00
2020,08,09,15,06,754.50
2020,08,09,15,07,752.40
2020,08,09,15,08,751.10
2020,08,09,15,09,750.80
2020,08,09,15,10,748.50
2020,08,09,15,11,747.00
2020,08,09,15,12,746.10
2020,08,09,15,13,744.50
2020,08,09,15,14,744.00
2020,08,09,15,15,742.50
2020,08,09,15,16,740.20
2020,08,09,15,17,738.00
2020,08,09,15,18,737.80
2020,08,09,15,19,736.40
2020,08,09,15,20,734.30
2020,08,09,15,21,733.00
2020,08,09,15,22,731.80
2020,08,09,15,23,729.60
2020,08,09,15,24,728.20
2020,08,09,15,25,726.20
2020,08,09,15,26,725.70
2020,08,09,15,27,723.60
2020,08,09,15,28,721.70
2020,08,09,15,29,720.10
2020,08,09,15,30,717.90
2020,08,09,15,31,717.00
2020,08,09,15,32,715.50
2020,08,09,15,33,714.20
2020,08,09,15,34,712.00
2020,08,09,15,35,710.00
2020,08,09,15,36,709.50
2020,08,09,15,37,707.70
2020,08,09,15,38,706.00
2020,08,09,15,39,703.80
2020,08,09,15,40,701.60
2020,08,09,15,41,700.20
2020,08,09,15,42,698.20
2020,08,09,15,43,696.10
2020,08,09,15,44,695.40
2020,08,09,15,45,692.40
2020,08,09,15,46,691.00
2020,08,09,15,47,690.00
2020,08,09,15,48,687.80
2020,08,09,15,49,686.30
2020,08,09,15,50,684.30
2020,08,09,15,51,682.20
2020,08,09,15,52,679.90
2020,08,09,15,53,678.50
2020,08,09,15,54,676.30
2020,08,09,15,55,674.00
2020,08,09,15,56,673.00
2020,08,09,15,57,670.90
2020,08,09,15,58,668.50
2020,08,09,15,59,666.20
2020,08,09,16,00,664.00
2020,08,09,16,01,662.70
2020,08,09,16,02,660.50
2020,08,09,16,03,658.20
2020,08,09,16,04,656.50
2020,08,09,16,05,654.80
2020,08,09,16,06,652.60
2020,08,09,16,07,650.40
2020,08,09,16,08,647.20
2020,08,09,16,09,645.00
2020,08,09,16,10,644.50
2020,08,09,16,11,642.00
2020,08,09,16,12,639.20
2020,08,09,16,13,637.00
2020,08,09,16,14,636.00
2020,08,09,16,15,633.80
2020,08,09,16,16,631.30
2020,08,09,16,17,630.80
2020,08,09,16,18,627.60
2020,08,09,16,19,625.50
2020,08,09,16,20,624.00
2020,08,09,16,21,622.60
2020,08,09,16,22,619.90
2020,08,09,16,23,617.70
2020,08,09,16,24,615.50
2020,08,09,16,25,613.30
2020,08,09,16,26,611.60
2020,08,09,16,27,607.60
2020,08,09,16,28,605.70
2020,08,09,16,29,604.20
2020,08,09,16,30,602.00
2020,08,09,16,31,599.80
2020,08,09,16,32,596.90
2020,08,09,16,33,594.30
2020,08,09,16,34,592.20
2020,08,09,16,35,590.70
2020,08,09,16,36,588.50
2020,08,09,16,37,586.30
2020,08,09,16,38,583.70
2020,08,09,16,39,581.00
2020,08,09,16,40,578.70
2020,08,09,16,41,577.20
2020,08,09,16,42,575.30
2020,08,09,16,43,571.10
2020,08,09,16,44,569.60
2020,08,09,16,45,567.40
2020,08,09,16,46,565.20
2020,08,09,16,47,562.60
2020,08,09,16,48,559.90
2020,08,09,16,49,557.50
2020,08,09,16,50,554.60
2020,08,09,16,51,554.00
2020,08,09,16,52,549.80
2020,08,09,16,53,547.80
2020,08,09,16,54,545.70
2020,08,09,16,55,542.20
2020,08,09,16,56,540.50
2020,08,09,16,57,538.70
2020,08,09,16,58,536.50
2020,08,09,16,59,533.50
2020,08,09,17,00,531.00
2020,08,09,17,01,528.70
2020,08,09,17,02,527.00
2020,08,09,17,03,525.40
2020,08,09,17,04,521.00
2020,08,09,17,05,519.50
2020,08,09,17,06,516.40
2020,08,09,17,07,513.50
2020,08,09,17,08,512.10
2020,08,09,17,09,507.90